Location: Newark
(58.8333°N, 23.5833°E)
Time: 02:02:48
(UTC+00:00)

A-11 Canister half - Pass Details

Date: 21 November 2019
Orbit: 1515 x 1685 km, 47.2° (Epoch: 08 December)

Event Time Altitude Azimuth Distance (km) Brightness Sun altitude
Rises 15:18:28 0° 206° (SSW) 4,878 12.4 -10.4°
Reaches altitude 10° 15:22:15 10° 194° (SSW) 3,912 11.6 -10.8°
Maximum altitude 15:29:57 26° 144° (SE) 2,874 10.3 -11.8°
Enters shadow 15:37:10 12° 95° (E) 3,826 10.5 -12.7°
Drops below altitude 10° 15:37:43 10° 93° (E) 3,953 - -12.7°
Sets 15:41:33 0° 82° (E) 4,938 - -13.2°
